Latest Coastal Weather Observations for Browse Island

IDW60701

Issued at 5:05 am WST Wednesday 26 November 2014 (issued every 10 minutes, with the page automatically refreshed every 10 minutes)

About coastal observations | Map of coastal stations | Coastal observations for WA | Marine services | Other Formats
Station Details ID: 200784 Name: BROWSE ISLAND Lat: -14.11 Lon: 123.55 Height: 3.7 m
Data from the previous 72 hours. | See also: Recent months for locations in Western Australia
Date/Time
WST
Temp

°C
Wind Pressure Rain
since 9am
mm
Weather Cloud Vis
km
Sea
Height
m
Swell
Dir
 
Speed
knots
Gust
knots
hPa Trend Height
m
Period
s
Dir
26/05:00am 29.7 SSW 12 13 1006.5 - - - - - - - - -
26/04:30am 30.0 SSW 13 - 1006.0 - - - - - - - - -
26/04:00am 29.8 SSW 12 - 1006.2 - - - - - - - - -
26/03:30am 30.0 SW 11 - 1005.0 - - - - - - - - -
26/03:00am 29.9 WSW 11 - 1005.7 - - - - - - - - -
26/02:30am 30.0 SW 11 - 1005.0 - - - - - - - - -
26/02:00am 30.0 SW 10 - 1005.6 - - - - - - - - -
26/01:30am 30.0 WSW 12 - 1005.0 - - - - - - - - -
26/01:00am 30.1 WSW 8 - 1005.9 - - - - - - - - -
26/12:30am 30.0 WSW 8 - 1005.0 - - - - - - - - -
26/12:00am 30.2 SW 7 9 1006.4 - - - - - - - - -
 
Date/Time
WST
Temp

°C
Wind Pressure Rain
since 9am
mm
Weather Cloud Vis
km
Sea
Height
m
Swell
Dir
 
Speed
knots
Gust
knots
hPa Trend Height
m
Period
s
Dir
25/11:30pm 30.0 W 11 - 1006.0 - - - - - - - - -
25/11:00pm 30.3 W 9 - 1006.6 - - - - - - - - -
25/10:30pm 30.0 W 12 - 1006.0 - - - - - - - - -
25/10:00pm 30.4 W 11 - 1006.7 - - - - - - - - -
25/09:30pm 30.0 WNW 11 - 1007.0 - - - - - - - - -
25/09:00pm 30.4 W 11 - 1006.8 - - - - - - - - -
25/08:30pm 30.0 W 9 - 1007.0 - - - - - - - - -
25/08:00pm 30.1 W 10 - 1006.6 - - - - - - - - -
25/07:30pm 30.0 WSW 10 - 1006.0 - - - - - - - - -
25/07:00pm 30.2 WSW 10 - 1006.3 - - - - - - - - -
25/06:30pm 30.0 WSW 10 - 1006.0 - - - - - - - - -
25/06:00pm 30.3 WSW 7 - 1006.0 - - - - - - - - -
25/05:30pm 31.0 WSW 9 - 1006.0 - - - - - - - - -
25/05:00pm 30.7 WSW 8 - 1005.6 - - - - - - - - -
25/04:30pm 31.0 WSW 8 - 1005.0 - - - - - - - - -
25/04:00pm 30.9 WSW 8 - 1005.8 - - - - - - - - -
25/03:30pm 31.0 WSW 8 - 1006.0 - - - - - - - - -
25/03:00pm 31.0 WSW 7 - 1006.0 - - - - - - - - -
25/02:30pm 31.0 WSW 6 - 1006.0 - - - - - - - - -
25/02:00pm 30.8 SW 7 - 1006.6 - - - - - - - - -
25/01:30pm 32.0 SW 6 - 1007.0 - - - - - - - - -
25/01:00pm 31.3 S 6 - 1007.5 - - - - - - - - -
25/12:30pm 31.0 S 5 - 1008.0 - - - - - - - - -
25/12:00pm 30.5 S 5 - 1008.2 - - - - - - - - -
25/11:30am 31.0 SSE 5 - 1008.0 - - - - - - - - -
25/11:00am 30.2 S 8 - 1008.7 - - - - - - - - -
25/10:30am 30.0 S 9 - 1009.0 - - - - - - - - -
25/10:00am 30.4 SSE 10 - 1009.4 - - - - - - - - -
25/09:30am 30.0 SSE 11 - 1009.0 - - - - - - - - -
25/09:00am 30.4 SSE 11 - 1010.0 - - - - - - - - -
25/08:30am 30.0 S 9 - 1010.0 - - - - - - - - -
25/08:00am 30.2 S 7 - 1009.7 - - - - - - - - -
25/07:30am 30.0 SSW 6 - 1009.0 - - - - - - - - -
25/07:00am 30.2 WSW 5 - 1009.1 - - - - - - - - -
25/06:30am 30.0 W 6 - 1009.0 - - - - - - - - -
25/06:00am 30.0 W 6 - 1008.8 - - - - - - - - -
25/05:30am 30.0 W 8 - 1008.0 - - - - - - - - -
25/05:00am 29.8 WNW 7 - 1008.3 - - - - - - - - -
25/04:30am 30.0 WNW 9 - 1007.0 - - - - - - - - -
25/04:00am 29.9 WNW 10 - 1007.1 - - - - - - - - -
25/03:30am 30.0 WNW 8 - 1007.0 - - - - - - - - -
25/03:00am 29.9 WNW 11 - 1006.8 - - - - - - - - -
25/02:30am 30.0 WNW 9 - 1007.0 - - - - - - - - -
25/02:00am 30.0 WNW 9 - 1007.0 - - - - - - - - -
25/01:30am 30.0 WNW 8 - 1007.0 - - - - - - - - -
25/01:00am 30.0 WNW 7 - 1007.5 - - - - - - - - -
25/12:30am 30.0 W 7 - 1007.0 - - - - - - - - -
25/12:00am 30.2 W 9 - 1008.2 - - - - - - - - -
 
Date/Time
WST
Temp

°C
Wind Pressure Rain
since 9am
mm
Weather Cloud Vis
km
Sea
Height
m
Swell
Dir
 
Speed
knots
Gust
knots
hPa Trend Height
m
Period
s
Dir
24/11:30pm 30.0 W 8 - 1008.0 - - - - - - - - -
24/11:00pm 30.2 W 7 - 1009.1 - - - - - - - - -
24/10:30pm 30.0 W 7 - 1009.0 - - - - - - - - -
24/10:00pm 30.5 W 7 - 1009.3 - - - - - - - - -
24/09:30pm 30.0 WSW 6 - 1009.0 - - - - - - - - -
24/09:00pm 30.4 WSW 6 - 1009.3 - - - - - - - - -
24/08:30pm 31.0 SW 5 - 1009.0 - - - - - - - - -
24/08:00pm 30.7 SW 5 - 1009.1 - - - - - - - - -
24/07:30pm 31.0 SW 5 - 1008.0 - - - - - - - - -
24/07:00pm 30.7 WSW 6 - 1008.5 - - - - - - - - -
24/06:30pm 31.0 SW 6 - 1008.0 - - - - - - - - -
24/06:00pm 30.6 SW 5 - 1007.7 - - - - - - - - -
24/05:30pm 31.0 SW 6 - 1007.0 - - - - - - - - -
24/05:00pm 30.9 SW 5 - 1006.9 - - - - - - - - -
24/04:30pm 31.0 SW 5 - 1006.0 - - - - - - - - -
24/04:00pm 30.9 WSW 5 - 1006.9 - - - - - - - - -
24/03:30pm 31.0 WSW 5 - 1007.0 - - - - - - - - -
24/03:00pm 31.0 SW 5 - 1007.2 - - - - - - - - -
24/02:30pm 31.0 SSW 5 - 1007.0 - - - - - - - - -
24/02:00pm 30.5 SSW 6 - 1007.7 - - - - - - - - -
24/01:30pm 31.0 S 6 - 1008.0 - - - - - - - - -
24/01:00pm 30.6 S 7 - 1008.6 - - - - - - - - -
24/12:30pm 30.0 S 8 - 1009.0 - - - - - - - - -
24/12:00pm 30.1 S 9 - 1009.3 - - - - - - - - -
24/11:30am 30.0 S 9 - 1009.0 - - - - - - - - -
24/11:00am 29.8 S 9 - 1009.9 - - - - - - - - -
24/10:30am 31.0 S 8 - 1010.0 - - - - - - - - -
24/10:00am 30.0 S 8 - 1010.6 - - - - - - - - -
24/09:30am 30.0 S 8 - 1010.0 - - - - - - - - -
24/09:00am 29.7 S 9 - 1010.9 - - - - - - - - -
24/08:30am 30.0 S 9 - 1011.0 - - - - - - - - -
24/08:00am 29.7 S 9 - 1011.1 - - - - - - - - -
24/07:30am 30.0 S 8 - 1011.0 - - - - - - - - -
24/07:00am 29.8 SSW 6 - 1011.0 - - - - - - - - -
24/06:30am 30.0 SW 5 - 1010.0 - - - - - - - - -
24/06:00am 29.6 SW 6 - 1010.5 - - - - - - - - -
24/05:30am 30.0 SSW 6 - 1010.0 - - - - - - - - -
24/05:00am 29.5 SSW 8 - 1009.9 - - - - - - - - -
24/04:30am 30.0 SSW 7 - 1009.0 - - - - - - - - -
24/04:00am 29.7 SSW 8 - 1009.6 - - - - - - - - -
24/03:30am 30.0 SSW 5 - 1009.0 - - - - - - - - -
24/03:00am 29.8 W 3 - 1009.1 - - - - - - - - -
24/02:30am 30.0 WNW 3 - 1008.0 - - - - - - - - -
24/02:00am 29.7 CALM 0 - 1008.9 - - - - - - - - -
24/01:30am 30.0 CALM 0 - 1009.0 - - - - - - - - -
24/01:00am 29.6 CALM 0 - 1009.3 - - - - - - - - -
24/12:30am 30.0 CALM 0 - 1009.0 - - - - - - - - -
24/12:00am 29.8 ESE 2 - 1009.9 - - - - - - - - -
 
Date/Time
WST
Temp

°C
Wind Pressure Rain
since 9am
mm
Weather Cloud Vis
km
Sea
Height
m
Swell
Dir
 
Speed
knots
Gust
knots
hPa Trend Height
m
Period
s
Dir
23/11:30pm 30.0 CALM 0 - 1010.0 - - - - - - - - -
23/11:00pm 30.2 WSW 2 - 1010.9 - - - - - - - - -
23/10:30pm 30.0 SSW 3 - 1011.0 - - - - - - - - -
23/10:00pm 30.3 WSW 5 - 1011.0 - - - - - - - - -
23/09:30pm 30.0 W 4 - 1010.0 - - - - - - - - -
23/09:00pm 30.3 WNW 5 - 1010.3 - - - - - - - - -
23/08:30pm 30.0 NNW 3 - 1010.0 - - - - - - - - -
23/08:00pm 29.9 NW 3 - 1009.5 - - - - - - - - -
23/07:30pm 30.0 NW 2 - 1009.0 - - - - - - - - -
23/07:00pm 30.0 CALM 0 - 1009.0 - - - - - - - - -
23/06:30pm 30.0 CALM 0 - 1008.0 - - - - - - - - -
23/06:00pm 30.1 NW 4 - 1008.2 - - - - - - - - -
23/05:30pm 31.0 NW 3 - 1008.0 - - - - - - - - -
23/05:00pm 31.3 SW 2 - 1007.7 - - - - - - - - -
23/04:30pm 31.0 SSW 3 - 1007.0 - - - - - - - - -
23/04:00pm 30.9 W 5 - 1007.4 - - - - - - - - -
23/03:30pm 31.0 WSW 5 - 1007.0 - - - - - - - - -
23/03:00pm 31.0 WSW 5 - 1007.7 - - - - - - - - -
23/02:30pm 31.0 SW 5 - 1008.0 - - - - - - - - -
23/02:00pm 31.0 SW 5 - 1008.2 - - - - - - - - -
23/01:30pm 31.0 SSW 4 - 1008.0 - - - - - - - - -
23/01:00pm 31.2 WSW 5 - 1008.9 - - - - - - - - -
23/12:30pm 32.0 SSW 4 - 1009.0 - - - - - - - - -
23/12:00pm 31.3 SSW 4 - 1009.4 - - - - - - - - -
23/11:30am 31.0 SSW 3 - 1009.0 - - - - - - - - -
23/11:00am 31.4 W 3 - 1010.0 - - - - - - - - -
23/10:30am 31.0 SW 4 - 1010.0 - - - - - - - - -
23/10:00am 31.0 W 4 - 1010.5 - - - - - - - - -
23/09:30am 31.0 W 4 - 1010.0 - - - - - - - - -
23/09:00am 30.7 SSW 4 - 1010.5 - - - - - - - - -
23/08:30am 30.0 S 4 - 1010.0 - - - - - - - - -
23/08:00am 30.6 S 4 - 1010.6 - - - - - - - - -
23/07:30am 30.0 SSE 4 - 1010.0 - - - - - - - - -
23/07:00am 30.2 SE 5 - 1010.5 - - - - - - - - -
23/06:30am 30.0 SSE 6 - 1010.0 - - - - - - - - -
23/06:00am 29.6 SSE 5 - 1010.1 - - - - - - - - -
23/05:30am 29.0 S 4 - 1009.0 - - - - - - - - -

Other Formats:

Comma delimited format used in spreadsheet applications
http://www.bom.gov.au/fwo/IDW60701/IDW60701.94103.axf

JavaScript Object Notation format (JSON) in row-major order
http://www.bom.gov.au/fwo/IDW60701/IDW60701.94103.json